Tracking 31027 objects as of 19-Jul-2025
HD Live streaming from Space Station
objects crossing your sky now

DELTA 1 DEB

Track DELTA 1 DEB now!
10-day predictions


NORAD ID: 21289
Int'l Code: 1975-052AA
Perigee: 1,080.2 km
Apogee: 1,458.5 km
Inclination: 99.9 °
Period: 110.8 minutes
Semi major axis: 7640 km
RCS: 0.0171 m2 (small)
Launch date: June 12, 1975
Source: United States (US)
Launch site: AIR FORCE WESTERN TEST RANGE (AFWTR)

Note: This is SATELLITE DEBRIS
Your satellite tracking list
NUSAT-20 (GRACE)
Track 1 satellite(s)




NASA's NSSDC Master Catalog

Two Line Element Set (TLE):
1 21289U 75052AA  25199.84088287 -.00000154  00000-0 -33486-3 0  9991
2 21289  99.8807 211.2599 0247563  43.3609  78.0397 12.99974929621538
Source of the keplerian elements: AFSPC